[[{"header":{"parameterUnit":"m.s-1","parameterCategory":1,"la1":30.2991,"la2":30.254,"lo1":-89.0895,"lo2":-89.0444,"dy":0.0017,"dx":0.0017,"nx":28,"ny":28,"refTime":"2025-03-17T09:00:00:Z","depth":0,"parameterNumber":2,"parameterNumberName":"U-component_of_WINDS"},"data":[0,0,0,0,0,0,0,0,0,0,0,0,0,0,0,0,0,0,0,0,0,0,0,0,0,0,0,0,0,0,0,0,0,0,0,0,0,0,0,0,0,0,0,0,0,0,0,0,0,0,0,0,0,0,0,0,0,0,2.2633,2.2634,0,2.2711,2.2712,2.2713,2.2681,2.2679,2.2677,2.2675,2.2755,2.2759,2.2763,0,0,0,0,0,0,0,0,0,0,0,0,0,2.2457,2.246,2.2633,2.2634,2.2635,2.2711,2.2712,2.2713,2.2681,2.2679,2.2676,2.2674,2.2754,2.2759,2.2763,0,0,0,0,0,0,0,0,0,0,0,0,0,2.2534,2.2461,2.2633,2.2628,2.2628,2.2711,2.2712,2.2713,2.2681,2.2679,2.2676,2.2673,2.2752,2.2758,2.2764,2.2856,0,0,2.2782,2.2784,0,0,0,0,0,0,0,0,2.253,2.2541,2.2628,2.2628,2.2629,2.2683,2.2679,2.2761,2.2682,2.2661,2.2675,2.2672,2.2734,2.2741,2.2762,2.2859,2.2863,2.2782,2.2786,2.2788,2.279,0,0,0,0,0,0,0,2.2524,2.2537,2.2664,2.2629,2.263,2.2622,2.263,2.2695,2.2712,2.2663,2.2661,2.267,2.2733,2.2756,2.2763,2.2864,2.2782,2.2787,2.2791,2.2793,2.3043,2.3046,0,0,0,0,0,0,2.2519,2.2533,2.2661,2.2666,2.2571,2.2628,2.2637,2.2669,2.2711,2.2715,2.2673,2.2669,2.2747,2.2756,2.2766,2.2877,2.2788,2.2794,2.2797,2.304,2.3044,2.3047,0,0,0,0,0,0,2.2515,2.2531,2.2658,2.2599,2.2615,2.2634,2.267,2.2672,2.2694,2.2719,2.2722,2.2693,2.2746,2.2758,2.2834,2.2879,2.2796,2.2801,2.3036,2.3041,2.3045,2.31,0,0,0,0,0,0,2.251,2.253,2.2564,2.26,2.2618,2.2725,2.2673,2.2675,2.2704,2.27,2.2738,2.2742,2.2744,2.2826,2.284,2.2886,2.2806,2.3032,2.3038,2.3044,2.3094,2.3106,2.3116,0,0,0,0,0,2.2504,2.2576,2.2566,2.2582,2.2662,2.2727,2.2738,2.2739,2.2708,2.2743,2.276,2.2741,2.2872,2.2834,2.2849,2.2898,2.3029,2.3037,2.3043,2.3089,2.3103,2.3115,0,0,0,0,0,0,2.2545,2.2581,2.257,2.2655,2.2689,2.2722,2.2766,2.2754,2.2796,2.279,2.279,2.2799,2.2878,2.2896,2.2852,2.299,2.2946,2.2957,2.2975,2.2989,2.3,2.2994,2.2811,0,0,0,0,0,2.2564,2.2614,2.2642,2.2715,2.2733,2.2747,2.2775,2.2774,2.2808,2.2822,2.2843,2.2878,2.2927,2.2959,2.3005,2.3097,2.3105,2.3138,2.3149,2.3158,2.3167,2.3217,2.3232,2.307,2.307,2.307,0,0,2.2603,2.2629,2.266,2.2724,2.2749,2.2802,2.2759,2.2815,2.2855,2.283,2.2904,2.2921,2.296,2.3044,2.3082,2.3061,2.3214,2.3167,2.3174,2.3178,2.3226,2.3241,2.3255,2.3075,2.3074,2.3074,0,0,2.2701,2.2726,2.279,2.2817,2.2856,2.2865,2.2881,2.2916,2.2927,2.3001,2.2984,2.3031,2.3115,2.3144,2.3169,2.3281,2.3266,2.3296,2.3353,2.3402,2.3415,2.3426,2.3467,2.3481,2.3305,2.3306,2.3306,0,2.2745,2.2823,2.2824,2.2883,2.2912,2.2893,2.2958,2.2984,2.3037,2.3058,2.3033,2.314,2.3164,2.3256,2.3283,2.3304,2.3322,2.3291,2.3413,2.3425,2.3435,2.3474,2.3489,2.3309,2.3309,2.3308,2.3308,0,2.2876,2.293,2.2977,2.3029,2.3063,2.3125,2.3136,2.3171,2.3167,2.3179,2.3255,2.3284,2.3337,2.3358,2.3355,2.345,2.3436,2.3413,2.3368,2.3454,2.349,2.3505,2.3314,2.3313,2.3312,2.3311,0,0,2.3,2.3053,2.307,2.3094,2.3137,2.318,2.3241,2.3293,2.3323,2.3361,2.3413,2.3486,2.3465,2.3494,2.3494,2.3537,2.3625,2.3509,2.351,2.353,2.3732,2.3749,2.3766,2.3615,2.3618,2.362,2.3729,0,2.3102,2.321,2.3213,2.3311,2.3362,2.3347,2.34,2.3433,2.3447,2.3492,2.3507,2.3559,2.3528,2.3545,2.3588,2.3605,2.3666,2.3598,2.3664,2.3666,2.3654,2.3785,2.3803,2.3904,2.3743,2.3746,2.3747,0,2.3235,2.3277,2.3381,2.3418,2.344,2.3488,2.3536,2.358,2.3618,2.3624,2.3658,2.3652,2.3716,2.367,2.3759,2.3712,2.374,2.3753,2.3757,2.3763,2.3712,2.3794,2.3936,2.3951,2.377,2.3768,2.3766,0,2.3316,2.3399,2.3472,2.3493,2.3538,2.3572,2.3593,2.3627,2.3659,2.3702,2.3722,2.3772,2.3799,2.3838,2.3846,2.3812,2.3935,2.389,2.3943,2.3943,2.3968,2.3966,2.4116,2.3987,2.3987,2.3986,2.3986,0,2.3429,2.3493,2.3509,2.3554,2.3626,2.363,2.3701,2.3719,2.375,2.3799,2.3788,2.3834,2.3842,2.389,2.3897,2.3969,2.3982,2.399,2.399,2.399,2.3989,2.4008,2.4001,2.399,2.399,2.3989,2.3988,0,2.3531,2.3544,2.3622,2.3659,2.367,2.3722,2.3753,2.3797,2.381,2.3872,2.3887,2.3907,2.3964,2.3976,2.4042,2.4047,2.4133,2.4127,2.412,2.412,2.4172,2.4167,2.4338,2.4361,2.4217,2.4219,2.422,0,2.3602,2.3651,2.3693,2.3725,2.3747,2.3799,2.3831,2.3838,2.3872,2.3919,2.3957,2.4013,2.4057,2.4148,2.4169,2.422,2.4216,2.4272,2.4223,2.4222,2.4217,2.4213,2.4219,2.4281,2.4283,2.4284,2.4285,0,2.3726,2.3731,2.3778,2.3828,2.3867,2.3906,2.3944,2.3971,2.3983,2.4022,2.408,2.4114,2.4183,2.4238,2.429,2.4311,2.4301,2.4301,2.4316,2.4316,2.431,2.4314,2.4146,2.4297,2.4295,2.4295,2.4294,2.4294,2.3815,2.3858,2.3895,2.3948,2.3978,2.4013,2.4056,2.4076,2.4124,2.418,2.4181,2.4244,2.4282,2.4351,2.4376,2.4426,2.4408,2.443,2.4435,2.444,2.4445,2.4303,2.4435,2.4435,2.4435,2.4434,2.4434,0,2.3939,2.3962,2.4011,2.4065,2.4107,2.4094,2.4136,2.4172,2.4227,2.4263,2.4308,2.4375,2.4429,2.4455,2.4509,2.4544,2.4541,2.4558,2.4555,2.456,2.4458,2.4439,2.456,2.456,2.456,2.456,2.456,2.456,2.4008,2.4081,2.4091,2.4178,2.4201,2.4263,2.4288,2.4322,2.4351,2.4426,2.4471,2.4488,2.4521,2.4577,2.4626,2.4633,2.4653,2.4673,2.4677,2.458,2.4567,2.4555,2.4538,2.4677,2.4677,2.4776,2.4776,2.4777]},{"header":{"parameterUnit":"m.s-1","parameterCategory":1,"la1":30.2991,"la2":30.254,"lo1":-89.0895,"lo2":-89.0444,"dy":0.0017,"dx":0.0017,"nx":28,"ny":28,"refTime":"2025-03-17T09:00:00:Z","depth":0,"parameterNumber":3,"parameterNumberName":"V-component_of_WINDS"},"data":[0,0,0,0,0,0,0,0,0,0,0,0,0,0,0,0,0,0,0,0,0,0,0,0,0,0,0,0,0,0,0,0,0,0,0,0,0,0,0,0,0,0,0,0,0,0,0,0,0,0,0,0,0,0,0,0,0,0,-4.1915,-4.1917,0,-4.2141,-4.2144,-4.2146,-4.2164,-4.2162,-4.216,-4.2157,-4.239,-4.2398,-4.2406,0,0,0,0,0,0,0,0,0,0,0,0,0,-4.15,-4.1508,-4.1915,-4.1918,-4.192,-4.2141,-4.2144,-4.2147,-4.2165,-4.2162,-4.2159,-4.2156,-4.2387,-4.2397,-4.2407,0,0,0,0,0,0,0,0,0,0,0,0,0,-4.1699,-4.151,-4.1914,-4.1956,-4.1962,-4.214,-4.2144,-4.2148,-4.2166,-4.2162,-4.2158,-4.2155,-4.2384,-4.2396,-4.2408,-4.2561,0,0,-4.2447,-4.2453,0,0,0,0,0,0,0,0,-4.1687,-4.1714,-4.1947,-4.1953,-4.196,-4.2121,-4.2083,-4.2286,-4.2166,-4.2088,-4.2157,-4.2153,-4.2303,-4.2322,-4.2373,-4.2572,-4.2582,-4.2448,-4.2456,-4.2462,-4.2465,0,0,0,0,0,0,0,-4.1674,-4.1704,-4.2004,-4.195,-4.1959,-4.1964,-4.1988,-4.2121,-4.2214,-4.2095,-4.2097,-4.2123,-4.2306,-4.2361,-4.2378,-4.2585,-4.2448,-4.2459,-4.2467,-4.2472,-4.2922,-4.2926,0,0,0,0,0,0,-4.1652,-4.1693,-4.1997,-4.2011,-4.1812,-4.1974,-4.2001,-4.2073,-4.2212,-4.223,-4.2126,-4.2123,-4.2341,-4.2364,-4.2387,-4.2575,-4.2462,-4.2473,-4.2481,-4.2918,-4.2923,-4.2928,0,0,0,0,0,0,-4.1643,-4.1679,-4.1988,-4.1853,-4.1892,-4.1985,-4.2066,-4.2079,-4.2134,-4.2236,-4.2253,-4.2165,-4.2339,-4.2369,-4.2518,-4.2584,-4.2479,-4.2491,-4.2913,-4.2919,-4.2925,-4.2953,0,0,0,0,0,0,-4.1631,-4.1675,-4.1734,-4.1854,-4.1899,-4.2115,-4.207,-4.2087,-4.2156,-4.2154,-4.2276,-4.2293,-4.2338,-4.2499,-4.253,-4.2599,-4.2501,-4.2907,-4.2916,-4.2923,-4.2946,-4.2959,-4.2971,0,0,0,0,0,-4.1616,-4.1732,-4.1737,-4.1773,-4.1974,-4.2119,-4.2145,-4.2194,-4.2161,-4.2221,-4.2287,-4.2289,-4.2571,-4.2514,-4.255,-4.2623,-4.2903,-4.2913,-4.2923,-4.2941,-4.2957,-4.297,0,0,0,0,0,0,-4.1618,-4.1749,-4.1755,-4.1914,-4.2005,-4.2121,-4.2198,-4.2209,-4.2311,-4.2306,-4.2362,-4.239,-4.2537,-4.2595,-4.2529,-4.2779,-4.2734,-4.2751,-4.2735,-4.2751,-4.2763,-4.2746,-4.2511,0,0,0,0,0,-4.1636,-4.1742,-4.1851,-4.1981,-4.2026,-4.2104,-4.2169,-4.2199,-4.2296,-4.2335,-4.2411,-4.2505,-4.2615,-4.2687,-4.2793,-4.2955,-4.2983,-4.3023,-4.3035,-4.3045,-4.3059,-4.315,-4.317,-4.2959,-4.2959,-4.2959,0,0,-4.1676,-4.1761,-4.1824,-4.1983,-4.2057,-4.2166,-4.2137,-4.2253,-4.2335,-4.2352,-4.2498,-4.2557,-4.2666,-4.2823,-4.2895,-4.2876,-4.3124,-4.3057,-4.3064,-4.3074,-4.3162,-4.3182,-4.32,-4.2966,-4.2965,-4.2964,0,0,-4.1805,-4.1879,-4.1996,-4.2071,-4.2184,-4.2235,-4.2263,-4.2379,-4.2419,-4.2566,-4.2582,-4.268,-4.2868,-4.2946,-4.301,-4.3169,-4.3176,-4.3202,-4.3265,-4.3354,-4.337,-4.3385,-4.3443,-4.3463,-4.3216,-4.3216,-4.3216,0,-4.1841,-4.2005,-4.2055,-4.2171,-4.2241,-4.2262,-4.2381,-4.2452,-4.2594,-4.2642,-4.2618,-4.2855,-4.293,-4.3105,-4.3144,-4.3195,-4.3229,-4.3189,-4.3364,-4.3379,-4.3394,-4.345,-4.3471,-4.3219,-4.3219,-4.3218,-4.3218,0,-4.2044,-4.2157,-4.2238,-4.2375,-4.2454,-4.2571,-4.2639,-4.2713,-4.2737,-4.2791,-4.2941,-4.3032,-4.3158,-4.3201,-4.3225,-4.3381,-4.3365,-4.3352,-4.3308,-4.3416,-4.3469,-4.3491,-4.3222,-4.3222,-4.3221,-4.322,0,0,-4.2179,-4.2343,-4.2372,-4.2434,-4.2561,-4.265,-4.2769,-4.2892,-4.2955,-4.3052,-4.3154,-4.3313,-4.3302,-4.3374,-4.3407,-4.3485,-4.3607,-4.3462,-4.3466,-4.3486,-4.3785,-4.3795,-4.3818,-4.3612,-4.3616,-4.362,-4.3776,0,-4.2323,-4.2534,-4.2583,-4.2764,-4.2871,-4.2893,-4.2997,-4.3086,-4.314,-4.3239,-4.3299,-4.3411,-4.3387,-4.3431,-4.3509,-4.3575,-4.3667,-4.3565,-4.3708,-4.3712,-4.368,-4.3846,-4.3857,-4.4,-4.3797,-4.3801,-4.3803,0,-4.2518,-4.262,-4.2812,-4.2926,-4.2973,-4.3065,-4.3182,-4.3276,-4.3378,-4.3412,-4.3494,-4.3519,-4.3645,-4.3594,-4.3768,-4.3697,-4.3759,-4.38,-4.3807,-4.3823,-4.3764,-4.3867,-4.4047,-4.4068,-4.3837,-4.3834,-4.3832,0,-4.2599,-4.2784,-4.2923,-4.2976,-4.3112,-4.3177,-4.3236,-4.3335,-4.3406,-4.3509,-4.3557,-4.3673,-4.3737,-4.3826,-4.3883,-4.3841,-4.4053,-4.4007,-4.4085,-4.4084,-4.4129,-4.4126,-4.4322,-4.4168,-4.4167,-4.4167,-4.4167,0,-4.2754,-4.2871,-4.2962,-4.3047,-4.3179,-4.3235,-4.3364,-4.3424,-4.3512,-4.361,-4.3637,-4.3729,-4.3798,-4.3899,-4.3945,-4.4082,-4.4111,-4.4143,-4.4153,-4.4141,-4.4137,-4.4182,-4.4174,-4.4173,-4.4172,-4.417,-4.4169,0,-4.2866,-4.2931,-4.3085,-4.3201,-4.3233,-4.3326,-4.3426,-4.351,-4.3565,-4.369,-4.3722,-4.3809,-4.393,-4.3995,-4.4147,-4.4178,-4.4332,-4.4337,-4.4298,-4.4302,-4.4378,-4.437,-4.461,-4.4645,-4.4467,-4.4469,-4.447,0,-4.2961,-4.3051,-4.3178,-4.3245,-4.3306,-4.3415,-4.3488,-4.3547,-4.3622,-4.3746,-4.3816,-4.3939,-4.404,-4.4233,-4.431,-4.4427,-4.4435,-4.4512,-4.4453,-4.4438,-4.4438,-4.4432,-4.4442,-4.4522,-4.4523,-4.4525,-4.4526,0,-4.3123,-4.3151,-4.3255,-4.3371,-4.3458,-4.3552,-4.3646,-4.37,-4.3774,-4.3857,-4.3982,-4.406,-4.4216,-4.4338,-4.4461,-4.4523,-4.4538,-4.4544,-4.4568,-4.4557,-4.453,-4.4546,-4.4326,-4.4538,-4.4537,-4.4536,-4.4535,-4.4535,-4.323,-4.3312,-4.3414,-4.353,-4.3606,-4.3693,-4.3778,-4.3844,-4.3949,-4.408,-4.4108,-4.424,-4.4342,-4.4508,-4.4574,-4.4679,-4.4664,-4.4699,-4.4708,-4.4716,-4.4719,-4.4513,-4.4701,-4.4701,-4.4701,-4.47,-4.47,0,-4.3394,-4.3461,-4.3566,-4.3696,-4.3788,-4.3793,-4.3897,-4.3973,-4.4089,-4.4182,-4.4281,-4.4425,-4.4544,-4.463,-4.4752,-4.4819,-4.4829,-4.4849,-4.4845,-4.4859,-4.4725,-4.4692,-4.4839,-4.4839,-4.4839,-4.4839,-4.4839,-4.4839,-4.349,-4.3629,-4.367,-4.3848,-4.3914,-4.4043,-4.4102,-4.4183,-4.4258,-4.4417,-4.4516,-4.4571,-4.4663,-4.4791,-4.4901,-4.4923,-4.4967,-4.4987,-4.501,-4.4883,-4.4869,-4.4855,-4.4824,-4.4996,-4.4996,-4.5136,-4.5137,-4.5138]}]]